Showing default

FLOCK 4BE 30, 60499

Orbit data source: Space-Track

FLOCK 4BE 30, 60499 is a payload satellite owned by Planet (US) in SSO that was launched on Fri, 16 Aug 2024 UTC via an FALCON 9 launch vehicle from the Air Force Western Test Range (AFWTR). Payload-class satellites include a variety of spacecraft equipped with specific instruments for various scientific and technological missions. These include communications satellites like Starlink; space stations such as the ISS; scientific satellites like the Hubble; Earth observation satellites from companies like Planet Labs, Umbra, and HawkEye 360; GPS; miniature CubeSats for education and research; and military/defense satellites.

Loading next visibility...
Identifier
60499, 2024-149AH
Orbit
SSO
Country
Flag of USUS
Related business
Manufacturer
Planet
Mission
Operational Commercial Imaging
Bus & Motor
CUBESAT 3U, Unknown motor
Mass
5.7 kg wet, 5.7 kg dry
Launch date (UTC)
2024-08-16 (1 year ago)
Launch vehicle
FALCON 9
Launch site
Air Force Western Test Range (AFWTR)
Object type
Payload
Rocket body
Debris
Shape & HBR
Box + 2 Pan, 1.0 m
Radar Cross Section
0.072 m², Medium (>0.1 m² and < 1m²)

Expand to show TLE details & history
Last TLE update: 13 hours ago

TLE from 13 hours ago
0 FLOCK 4BE 30
1 60499U 24149AH  25340.93298018  .00024065  00000-0  72256-3 0  9994
2 60499  97.3988  59.1720 0002635 224.7222 135.3809 15.34431839 72150
Epoch: 2025-12-06T22:23Z
TLE epoch observation values (Epoch: 2025-12-06T22:23:29.487Z)
Latitude
-0.00001°
Longitude
7.34552°
Altitude
467.002 km
Speed
7.632 km/s
True Right ascension
03h 56m 41s
True Declination
0° 00' 00"
Sunlit
Object was in full shadow at epoch
Visualization orbit readout
Latitude
Unknown
Longitude
Unknown
Altitude
Unknown
Speed
Unknown
Apparent Right ascension
Unknown
Apparent Declination
Unknown
Sunlit
N/A
Visualization observer readout
Local Sidereal Time
09:45:48
Azimuth
Unknown
Elevation
Unknown
Doppler factor
Unknown
Orbital elements
Apogee altitude
461.357 km
Perigee altitude
457.753 km
Semi-major axis
6,837.692 km
Eccentricity
0.00026
Inclination
97.3988°
RAAN
59.172°
Arg. of periapsis
224.7222°
True anomaly
135.4021°
Mean anomaly
135.3809°
Eccentric anomaly
135.3915°
Mean motion
3.83865 °/min
Orbital period
93.78 mins
BSTAR
0.00072256
Loading maneuver chart data...
Computing Atmospheric mass density...
Loading historical data...
Loading historical data...
Loading historical data...
Loading historical data...
Loading historical data...
Loading historical data...
Loading historical data...

Documentation

Showing up to 5 results
|